VE3ZEB-1 Weather Reports


Display with metric or nautical units.
time (UTC)temp
F
wind
direction
speed
MPH
gust
MPH
rain 1hr
in
rain 24hr
in
rain mn
in
humidity
%
barometer
mb
20260902165508 89 38 2.0 5.0 0.00 0.00 0.00 99 680.4
20260902164539 0 19 2.0 3.0 0.00 0.00 0.00
20260902163528 0 0.0 0.0 0.00 0.00 0.00
20260902162529 88 75 3.0 9.0 0.00 0.00 0.00 99 680.4
20260902161509 87 8 4.0 7.0 0.00 0.00 0.00 99 680.3
20260902160523 86 16 3.0 5.0 0.00 0.00 0.00 99 680.3
20260902155643 85 25 3.0 5.0 0.00 0.00 0.00 99 680.3
20260902154528 83 16 3.0 6.0 0.00 0.00 0.00 99 680.2
20260902153540 82 354 4.0 5.0 0.00 0.00 0.00 99 680.2
20260902152542 80 3 7.0 10.0 0.00 0.00 0.00 99 680.2
20260902151631 79 13 4.0 8.0 0.00 0.00 0.00 99 680.2
20260902150515 79 5 4.0 6.0 0.00 0.00 0.00 99 680.1
20260902145544 79 359 4.0 7.0 0.00 0.00 0.00 99 680.1
20260902144510 78 5 3.0 6.0 0.00 0.00 0.00 99 680.1
20260902143540 77 10 4.0 5.0 0.00 0.00 0.00 99 680.1
20260902142524 76 14 4.0 5.0 0.00 0.00 0.00 99 680.1
20260902141524 75 15 4.0 7.0 0.00 0.00 0.00 99 680.1
20260902140525 75 5 5.0 6.0 0.00 0.00 0.00 99 680.0
20260902135525 75 11 3.0 4.0 0.00 0.00 0.00 99 680.0
20260902134525 74 4 3.0 5.0 0.00 0.00 0.00 99 680.0
20260902133617 74 6 4.0 7.0 0.00 0.00 0.00 99 680.0
20260902132545 74 5 3.0 5.0 0.00 0.00 0.00 99 680.0
20260902131511 74 10 2.0 3.0 0.00 0.00 0.00 99 680.0
20260902130525 74 8 3.0 4.0 0.00 0.00 0.00 99 680.0
20260902125525 74 13 3.0 4.0 0.00 0.00 0.00 99 680.0
20260902124526 73 20 2.0 3.0 0.00 0.00 0.00 99 680.0
20260902123526 73 21 2.0 3.0 0.00 0.00 0.00 99 680.0
20260902122546 73 7 3.0 4.0 0.00 0.00 0.00 99 680.0
20260902121526 73 3 1.0 3.0 0.00 0.00 0.00 99 680.0
20260902120547 73 19 2.0 4.0 0.00 0.00 0.00 99 680.0
20260902115512 73 28 1.0 3.0 0.00 0.00 0.00 99 680.0
20260902114513 73 26 1.0 2.0 0.00 0.00 0.00 99 680.0
20260902113512 73 24 2.0 3.0 0.00 0.00 0.00 99 680.0
20260902112527 73 25 2.0 3.0 0.00 0.00 0.00 99 680.0
20260902111527 73 40 0.0 2.0 0.00 0.00 0.00 99 680.0
20260902110608 73 28 1.0 2.0 0.00 0.00 0.00 99 680.0
20260902105533 73 60 1.0 3.0 0.00 0.00 0.00 99 680.0
20260902104513 73 40 2.0 4.0 0.00 0.00 0.00 99 680.0
20260902103513 73 130 2.0 4.0 0.00 0.00 0.00 99 680.0
20260902102548 73 66 2.0 3.0 0.00 0.00 0.00 99 680.0
20260902101528 73 63 1.0 3.0 0.00 0.00 0.00 99 680.0
20260902100528 73 55 1.0 3.0 0.00 0.00 0.00 99 680.0
20260902095514 73 72 2.0 5.0 0.00 0.00 0.00 99 680.0
20260902094528 73 70 1.0 3.0 0.00 0.00 0.00 99 680.0
20260902093528 73 91 1.0 2.0 0.00 0.00 0.00 99 680.0
20260902092549 74 91 1.0 3.0 0.00 0.00 0.00 99 680.0
20260902091549 74 65 1.0 3.0 0.00 0.00 0.00 99 680.0
20260902090515 74 56 1.0 3.0 0.00 0.00 0.00 99 680.0
20260902085515 73 35 2.0 3.0 0.00 0.00 0.00 99 680.0
20260902084515 74 12 2.0 3.0 0.00 0.00 0.00 99 680.0
20260902083529 74 341 0.0 1.0 0.00 0.00 0.00 99 680.0
20260902082515 74 18 1.0 2.0 0.00 0.00 0.00 99 680.0
20260902081530 74 14 1.0 3.0 0.00 0.00 0.00 99 680.0
20260902080550 73 30 1.0 2.0 0.00 0.00 0.00 99 680.0
20260902075516 74 14 1.0 2.0 0.00 0.00 0.00 99 680.0
20260902074516 74 10 1.0 2.0 0.00 0.00 0.00 99 680.0
20260902073516 74 15 1.0 2.0 0.00 0.00 0.00 99 680.0
20260902072516 74 5 1.0 2.0 0.00 0.00 0.00 99 680.0
20260902071516 74 18 1.0 3.0 0.00 0.00 0.00 99 680.0
20260902070517 74 17 2.0 3.0 0.00 0.00 0.00 99 680.0
20260902065537 74 16 2.0 3.0 0.00 0.00 0.00 99 680.0
20260902064517 74 22 1.0 2.0 0.00 0.00 0.00 99 680.0
20260902063517 74 35 0.0 2.0 0.00 0.00 0.00 99 680.0
20260902062517 74 10 1.0 3.0 0.00 0.00 0.00 99 680.0
20260902061517 74 14 1.0 2.0 0.00 0.00 0.00 99 680.0
20260902060517 74 16 1.0 2.0 0.00 0.00 0.00 99 680.0
20260902055555 74 21 0.0 1.0 0.00 0.00 0.00 99 680.0
20260902054517 74 4 0.0 1.0 0.00 0.00 0.00 99 680.0
20260902053608 74 40 0.0 1.0 0.00 0.00 0.00 99 680.0
20260902052538 75 65 1.0 3.0 0.00 0.00 0.00 99 680.0
20260902051518 75 68 0.0 3.0 0.00 0.00 0.00 99 680.0
20260902050518 74 86 1.0 4.0 0.00 0.00 0.00 99 680.0
20260902045518 74 27 1.0 2.0 0.00 0.00 0.00 99 680.0
20260902044518 74 10 2.0 3.0 0.00 0.00 0.00 99 680.0
20260902043519 75 2 1.0 2.0 0.00 0.00 0.00 99 680.0
20260902042539 75 0.0 0.0 0.00 0.00 0.00 99 680.0
20260902041519 75 339 0.0 1.0 0.00 0.00 0.00 99 680.0
20260902040533 75 328 0.0 1.0 0.00 0.00 0.00 99 680.0
20260902035540 75 357 1.0 2.0 0.00 0.00 0.00 99 680.1
20260902034519 75 13 1.0 2.0 0.00 0.00 0.00 99 680.0
20260902033520 75 343 1.0 1.0 0.00 0.00 0.00 99 680.0
20260902032612 75 338 1.0 1.0 0.00 0.00 0.00 99 680.0
20260902031520 76 346 1.0 2.0 0.00 0.00 0.00 99 680.1
20260902030520 76 3 2.0 3.0 0.00 0.00 0.00 99 680.1
20260902025520 76 8 2.0 2.0 0.00 0.00 0.00 99 680.1
20260902024535 76 321 1.0 1.0 0.00 0.00 0.00 99 680.1
20260902023520 76 0.0 0.0 0.00 0.00 0.00 99 680.1
20260902022520 77 0.0 0.0 0.00 0.00 0.00 99 680.1
20260902021520 77 314 1.0 2.0 0.00 0.00 0.00 99 680.1
20260902020520 77 0.0 0.0 0.00 0.00 0.00 99 680.1
20260902015521 78 0.0 0.0 0.00 0.00 0.00 99 680.1
20260902014521 78 0.0 0.0 0.00 0.00 0.00 99 680.1
20260902013522 78 344 0.0 1.0 0.00 0.00 0.00 99 680.1
20260902012521 78 9 0.0 2.0 0.00 0.00 0.00 99 680.1
20260902011521 79 0.0 0.0 0.00 0.00 0.00 99 680.1
20260902010521 79 344 0.0 1.0 0.00 0.00 0.00 99 680.1
20260902005521 79 342 0.0 1.0 0.00 0.00 0.00 99 680.2
20260902004521 80 333 1.0 1.0 0.00 0.00 0.00 99 680.2
20260902003522 80 333 1.0 2.0 0.00 0.00 0.00 99 680.2
20260902002522 81 355 2.0 3.0 0.00 0.00 0.00 99 680.2
20260902001543 82 16 2.0 4.0 0.00 0.00 0.00 99 680.2
20260902000522 82 8 2.0 4.0 0.00 0.00 0.00 99 680.2
20260901235522 83 4 2.0 4.0 0.00 0.00 0.00 99 680.2
20260901234523 83 10 2.0 3.0 0.00 0.00 0.00 99 680.2
20260901233408 84 5 3.0 5.0 0.00 0.00 0.00 99 680.2
20260901232523 84 22 2.0 3.0 0.00 0.00 0.00 99 680.2
20260901231523 85 8 3.0 5.0 0.00 0.00 0.00 99 680.3
20260901230523 86 8 3.0 5.0 0.00 0.00 0.00 99 680.3
20260901225604 86 10 3.0 4.0 0.00 0.00 0.00 99 680.3
20260901224544 87 360 1.0 2.0 0.00 0.00 0.00 99 680.3
20260901223543 87 26 0.0 2.0 0.00 0.00 0.00 99 680.3
20260901222523 87 211 1.0 3.0 0.00 0.00 0.00 99 680.3
20260901221523 87 101 2.0 3.0 0.00 0.00 0.00 99 680.3
20260901220453 88 86 1.0 2.0 0.00 0.00 0.00 99 680.3
20260901215524 88 69 1.0 2.0 0.00 0.00 0.00 99 680.3
20260901214544 88 108 1.0 3.0 0.00 0.00 0.00 99 680.3
20260901213524 88 134 0.0 1.0 0.00 0.00 0.00 99 680.3
20260901212525 88 22 1.0 3.0 0.00 0.00 0.00 99 680.3
20260901211545 88 358 2.0 3.0 0.00 0.00 0.00 99 680.4
20260901210554 88 11 2.0 3.0 0.00 0.00 0.00 99 680.4
20260901205525 88 333 0.0 1.0 0.00 0.00 0.00 99 680.4
20260901204525 88 38 2.0 4.0 0.00 0.00 0.00 99 680.4
20260901203430 88 294 1.0 2.0 0.00 0.00 0.00 99 680.4
20260901202410 88 90 2.0 4.0 0.00 0.00 0.00 99 680.4
20260901201525 87 209 1.0 3.0 0.00 0.00 0.00 99 680.4
20260901200410 87 157 2.0 3.0 0.00 0.00 0.00 99 680.3
20260901195526 87 185 2.0 3.0 0.00 0.00 0.00 99 680.3
20260901194545 87 143 2.0 3.0 0.00 0.00 0.00 99 680.3
20260901193526 87 206 1.0 3.0 0.00 0.00 0.00 99 680.4
20260901192526 87 232 1.0 4.0 0.00 0.01 0.00 99 680.3
20260901191527 87 131 1.0 2.0 0.00 0.01 0.00 99 680.3
20260901190516 87 190 1.0 3.0 0.00 0.01 0.00 99 680.3
20260901185411 87 189 1.0 3.0 0.00 0.01 0.00 99 680.3
20260901184447 88 185 1.0 5.0 0.00 0.01 0.00 99 680.4
20260901183412 88 127 1.0 3.0 0.00 0.01 0.00 99 680.4
20260901182527 87 132 3.0 5.0 0.00 0.01 0.00 99 680.4
20260901181412 87 87 2.0 4.0 0.00 0.01 0.00 99 680.4
20260901180412 87 115 3.0 6.0 0.00 0.01 0.00 99 680.4
20260901175516 88 100 2.0 4.0 0.00 0.01 0.00 99 680.4
20260901174412 88 108 2.0 6.0 0.00 0.01 0.00 99 680.4
20260901173412 88 125 3.0 5.0 0.00 0.01 0.00 99 680.4
20260901172537 88 109 3.0 5.0 0.00 0.01 0.00 99 680.4
20260901171537 88 111 3.0 7.0 0.00 0.01 0.00 99 680.4
20260901170518 88 116 3.0 5.0 0.00 0.02 0.00 99 680.4